QPF
0.00 0.00 0.00 0.00 0.00 0.00 0.00 0.00 0.00 0.00 0.00 0.00 0.00 0.00 0.00 0.00 0.00 0.00 0.00 0.00 0.00 0.00 0.00 0.00 0.00 0.00 0.00 0.01 0.03 0.05 0.08 0.12 0.13 0.14 0.15 0.14 0.14 0.13 0.12 0.11 0.10 0.09 0.07
0.00 0.00 0.00 0.00 0.00 0.00 0.00 0.00 0.00 0.00 0.00 0.00 0.00 0.00 0.00 0.00 0.00 0.00 0.00 0.00 0.00 0.00 0.00 0.00 0.00 0.00 0.00 0.00 0.01 0.04 0.06 0.09 0.13 0.17 0.17 0.17 0.17 0.16 0.15 0.14 0.12 0.10 0.07
0.00 0.00 0.00 0.00 0.00 0.00 0.00 0.00 0.00 0.00 0.00 0.00 0.00 0.00 0.00 0.00 0.00 0.00 0.00 0.00 0.00 0.00 0.00 0.00 0.00 0.00 0.00 0.00 0.01 0.02 0.05 0.08 0.11 0.15 0.20 0.21 0.19 0.19 0.17 0.15 0.13 0.11 0.08
0.00 0.00 0.00 0.00 0.00 0.00 0.00 0.00 0.00 0.00 0.00 0.00 0.00 0.00 0.00 0.00 0.00 0.00 0.00 0.00 0.00 0.00 0.00 0.00 0.00 0.00 0.00 0.00 0.01 0.01 0.03 0.06 0.09 0.12 0.17 0.24 0.22 0.20 0.20 0.17 0.14 0.10 0.08
0.00 0.00 0.00 0.00 0.00 0.00 0.00 0.00 0.00 0.00 0.00 0.00 0.00 0.00 0.00 0.00 0.00 0.00 0.00 0.00 0.00 0.00 0.00 0.00 0.00 0.01 0.01 0.01 0.01 0.01 0.01 0.04 0.08 0.11 0.15 0.22 0.27 0.24 0.20 0.17 0.16 0.13 0.10
0.00 0.00 0.00 0.00 0.00 0.00 0.00 0.00 0.00 0.00 0.00 0.00 0.00 0.00 0.00 0.00 0.00 0.00 0.00 0.00 0.00 0.00 0.00 0.00 0.00 0.01 0.02 0.02 0.01 0.01 0.01 0.02 0.05 0.11 0.14 0.18 0.22 0.25 0.24 0.23 0.20 0.16 0.11
0.00 0.00 0.00 0.00 0.00 0.00 0.00 0.00 0.00 0.00 0.00 0.00 0.00 0.00 0.00 0.00 0.00 0.00 0.00 0.00 0.00 0.00 0.01 0.01 0.01 0.01 0.02 0.02 0.02 0.03 0.02 0.01 0.04 0.08 0.13 0.14 0.16 0.19 0.26 0.27 0.23 0.18 0.11
0.00 0.00 0.00 0.00 0.00 0.00 0.00 0.00 0.00 0.00 0.00 0.00 0.00 0.00 0.00 0.00 0.00 0.00 0.00 0.00 0.00 0.00 0.01 0.01 0.02 0.02 0.03 0.04 0.04 0.03 0.02 0.02 0.02 0.04 0.09 0.14 0.14 0.16 0.19 0.28 0.29 0.26 0.20
0.00 0.00 0.00 0.00 0.00 0.00 0.00 0.00 0.00 0.00 0.00 0.00 0.00 0.00 0.00 0.00 0.00 0.00 0.00 0.00 0.00 0.00 0.00 0.01 0.01 0.02 0.03 0.05 0.05 0.05 0.03 0.02 0.02 0.03 0.06 0.13 0.17 0.17 0.20 0.23 0.31 0.30 0.25
0.00 0.00 0.00 0.00 0.00 0.00 0.00 0.00 0.00 0.00 0.00 0.00 0.00 0.00 0.00 0.00 0.00 0.00 0.00 0.00 0.00 0.00 0.01 0.01 0.01 0.02 0.04 0.05 0.05 0.05 0.04 0.03 0.02 0.03 0.04 0.09 0.15 0.17 0.18 0.18 0.18 0.21 0.20
0.00 0.00 0.00 0.00 0.00 0.00 0.00 0.00 0.00 0.00 0.00 0.00 0.00 0.00 0.00 0.00 0.00 0.00 0.00 0.00 0.00 0.00 0.01 0.01 0.01 0.02 0.02 0.05 0.05 0.04 0.05 0.04 0.04 0.04 0.03 0.05 0.11 0.15 0.16 0.17 0.15 0.13 0.14
0.00 0.00 0.00 0.00 0.00 0.00 0.00 0.00 0.00 0.00 0.00 0.00 0.00 0.00 0.00 0.00 0.00 0.00 0.00 0.00 0.00 0.01 0.01 0.01 0.01 0.02 0.02 0.03 0.04 0.05 0.05 0.06 0.05 0.04 0.04 0.03 0.06 0.11 0.15 0.16 0.15 0.13 0.10
0.00 0.00 0.00 0.00 0.00 0.00 0.00 0.00 0.00 0.00 0.00 0.00 0.00 0.00 0.00 0.00 0.00 0.00 0.00 0.00 0.00 0.00 0.01 0.02 0.03 0.03 0.03 0.03 0.04 0.06 0.06 0.06 0.06 0.05 0.03 0.03 0.04 0.08 0.14 0.18 0.18 0.16 0.14
0.00 0.00 0.00 0.00 0.00 0.00 0.00 0.00 0.00 0.00 0.00 0.00 0.00 0.00 0.00 0.00 0.00 0.01 0.01 0.01 0.01 0.01 0.02 0.03 0.05 0.05 0.04 0.04 0.05 0.06 0.07 0.07 0.06 0.05 0.03 0.03 0.04 0.06 0.11 0.17 0.21 0.22 0.20
0.00 0.00 0.00 0.00 0.00 0.00 0.00 0.00 0.00 0.00 0.00 0.00 0.00 0.01 0.01 0.01 0.01 0.02 0.02 0.02 0.01 0.02 0.03 0.02 0.04 0.05 0.05 0.04 0.05 0.06 0.07 0.07 0.06 0.06 0.05 0.04 0.03 0.04 0.08 0.14 0.18 0.21 0.21
0.00 0.00 0.00 0.00 0.00 0.00 0.00 0.00 0.01 0.01 0.00 0.00 0.01 0.01 0.01 0.01 0.02 0.02 0.01 0.01 0.02 0.02 0.02 0.01 0.03 0.05 0.06 0.06 0.05 0.05 0.06 0.07 0.05 0.05 0.05 0.04 0.03 0.03 0.05 0.10 0.16 0.18 0.18
0.00 0.00 0.00 0.00 0.00 0.00 0.00 0.00 0.01 0.01 0.01 0.01 0.01 0.01 0.01 0.01 0.02 0.02 0.01 0.01 0.02 0.02 0.02 0.02 0.02 0.05 0.06 0.06 0.05 0.03 0.05 0.06 0.05 0.04 0.04 0.03 0.03 0.02 0.03 0.06 0.12 0.15 0.16
0.00 0.00 0.00 0.00 0.00 0.00 0.00 0.01 0.01 0.01 0.01 0.01 0.01 0.01 0.01 0.01 0.02 0.02 0.01 0.01 0.02 0.03 0.02 0.02 0.02 0.02 0.04 0.05 0.04 0.03 0.04 0.06 0.05 0.04 0.03 0.02 0.01 0.02 0.03 0.04 0.07 0.11 0.11
0.00 0.00 0.00 0.00 0.00 0.00 0.00 0.01 0.01 0.02 0.02 0.01 0.01 0.01 0.02 0.02 0.02 0.02 0.01 0.01 0.01 0.02 0.03 0.02 0.02 0.02 0.02 0.03 0.03 0.02 0.03 0.05 0.04 0.02 0.01 0.01 0.01 0.01 0.02 0.04 0.05 0.08 0.09
0.00 0.00 0.00 0.00 0.00 0.00 0.00 0.00 0.01 0.01 0.01 0.01 0.01 0.01 0.02 0.02 0.02 0.03 0.02 0.01 0.01 0.01 0.01 0.01 0.01 0.02 0.03 0.03 0.02 0.01 0.02 0.02 0.02 0.01 0.01 0.01 0.01 0.01 0.02 0.03 0.04 0.06 0.07
0.00 0.00 0.00 0.00 0.00 0.00 0.00 0.00 0.00 0.01 0.01 0.01 0.01 0.01 0.01 0.02 0.02 0.03 0.04 0.03 0.01 0.02 0.02 0.01 0.01 0.01 0.02 0.02 0.02 0.01 0.01 0.01 0.01 0.01 0.01 0.01 0.00 0.01 0.02 0.03 0.04 0.05 0.06
0.00 0.00 0.00 0.00 0.00 0.00 0.00 0.00 0.00 0.00 0.01 0.01 0.01 0.00 0.01 0.01 0.02 0.03 0.04 0.04 0.03 0.02 0.02 0.02 0.02 0.01 0.01 0.01 0.02 0.02 0.01 0.01 0.01 0.01 0.01 0.01 0.01 0.01 0.02 0.03 0.03 0.05 0.06
0.00 0.00 0.00 0.00 0.00 0.00 0.00 0.00 0.00 0.00 0.01 0.01 0.01 0.01 0.01 0.01 0.02 0.03 0.03 0.03 0.03 0.03 0.03 0.03 0.03 0.02 0.02 0.02 0.01 0.01 0.02 0.01 0.01 0.01 0.01 0.02 0.02 0.02 0.02 0.02 0.03 0.04 0.05
0.00 0.00 0.00 0.00 0.00 0.00 0.00 0.00 0.00 0.00 0.00 0.00 0.00 0.01 0.01 0.01 0.03 0.03 0.03 0.03 0.03 0.03 0.03 0.03 0.03 0.03 0.04 0.03 0.02 0.02 0.02 0.01 0.01 0.01 0.01 0.02 0.03 0.03 0.03 0.02 0.03 0.04 0.05
0.00 0.00 0.00 0.00 0.00 0.00 0.00 0.00 0.00 0.00 0.00 0.00 0.00 0.00 0.01 0.01 0.02 0.03 0.03 0.04 0.03 0.04 0.04 0.04 0.04 0.05 0.04 0.03 0.01 0.01 0.01 0.01 0.01 0.01 0.02 0.03 0.04 0.04 0.04 0.04 0.04 0.05 0.06
0.00 0.00 0.00 0.00 0.00 0.00 0.00 0.00 0.01 0.01 0.00 0.00 0.01 0.00 0.01 0.01 0.01 0.03 0.03 0.03 0.03 0.03 0.04 0.04 0.04 0.04 0.03 0.02 0.01 0.01 0.01 0.01 0.02 0.02 0.02 0.02 0.04 0.05 0.05 0.05 0.06 0.06 0.07
MSLP
1013.82 1013.84 1013.86 1013.87 1013.85 1013.78 1013.66 1013.52 1013.36 1013.21 1013.07 1012.95 1012.83 1012.70 1012.55 1012.39 1012.21 1012.04 1011.90 1011.82 1011.81 1011.88 1012.02 1012.21 1012.42 1012.61 1012.77 1012.85 1012.86 1012.79 1012.65 1012.46 1012.22 1011.97 1011.70 1011.43 1011.17 1010.92 1010.70 1010.53 1010.43 1010.43 1010.53
1013.73 1013.65 1013.60 1013.54 1013.46 1013.34 1013.20 1013.04 1012.88 1012.73 1012.59 1012.47 1012.35 1012.22 1012.08 1011.92 1011.75 1011.58 1011.43 1011.33 1011.29 1011.32 1011.42 1011.56 1011.75 1011.94 1012.11 1012.25 1012.33 1012.36 1012.34 1012.26 1012.15 1012.00 1011.82 1011.61 1011.40 1011.19 1011.00 1010.85 1010.77 1010.77 1010.89
1013.55 1013.40 1013.28 1013.15 1013.01 1012.85 1012.68 1012.49 1012.31 1012.15 1012.01 1011.88 1011.76 1011.64 1011.51 1011.36 1011.20 1011.04 1010.89 1010.78 1010.71 1010.70 1010.76 1010.87 1011.02 1011.20 1011.38 1011.55 1011.69 1011.80 1011.87 1011.90 1011.88 1011.83 1011.74 1011.61 1011.47 1011.32 1011.19 1011.10 1011.07 1011.13 1011.28
1013.28 1013.09 1012.91 1012.73 1012.53 1012.33 1012.11 1011.90 1011.70 1011.51 1011.36 1011.22 1011.10 1010.99 1010.87 1010.73 1010.59 1010.43 1010.29 1010.17 1010.09 1010.05 1010.08 1010.16 1010.28 1010.44 1010.62 1010.81 1010.99 1011.15 1011.29 1011.39 1011.45 1011.47 1011.46 1011.41 1011.35 1011.28 1011.23 1011.22 1011.28 1011.40 1011.61
1012.94 1012.72 1012.51 1012.29 1012.06 1011.81 1011.55 1011.30 1011.07 1010.86 1010.68 1010.53 1010.41 1010.29 1010.17 1010.05 1009.91 1009.77 1009.64 1009.52 1009.43 1009.39 1009.39 1009.45 1009.56 1009.70 1009.88 1010.07 1010.27 1010.46 1010.63 1010.78 1010.89 1010.97 1011.02 1011.04 1011.05 1011.06 1011.10 1011.18 1011.33 1011.54 1011.82
1012.55 1012.34 1012.11 1011.87 1011.61 1011.33 1011.03 1010.74 1010.47 1010.23 1010.02 1009.85 1009.70 1009.58 1009.45 1009.33 1009.21 1009.08 1008.95 1008.84 1008.76 1008.71 1008.71 1008.76 1008.85 1008.99 1009.15 1009.35 1009.55 1009.75 1009.94 1010.11 1010.25 1010.37 1010.46 1010.54 1010.62 1010.70 1010.82 1010.99 1011.22 1011.52 1011.87
1012.16 1011.97 1011.76 1011.51 1011.22 1010.91 1010.58 1010.25 1009.94 1009.66 1009.41 1009.20 1009.03 1008.88 1008.74 1008.61 1008.48 1008.36 1008.24 1008.14 1008.06 1008.02 1008.02 1008.07 1008.16 1008.29 1008.46 1008.64 1008.85 1009.05 1009.25 1009.43 1009.59 1009.74 1009.86 1009.98 1010.11 1010.26 1010.45 1010.69 1010.99 1011.35 1011.75
1011.82 1011.66 1011.46 1011.21 1010.91 1010.57 1010.21 1009.84 1009.48 1009.16 1008.86 1008.61 1008.40 1008.21 1008.05 1007.91 1007.77 1007.64 1007.53 1007.43 1007.36 1007.32 1007.33 1007.38 1007.47 1007.60 1007.76 1007.95 1008.15 1008.36 1008.56 1008.76 1008.94 1009.10 1009.26 1009.42 1009.59 1009.79 1010.03 1010.32 1010.66 1011.06 1011.50
1011.54 1011.41 1011.22 1010.97 1010.65 1010.29 1009.89 1009.48 1009.08 1008.71 1008.37 1008.08 1007.82 1007.60 1007.41 1007.24 1007.09 1006.95 1006.83 1006.73 1006.66 1006.63 1006.63 1006.67 1006.76 1006.89 1007.05 1007.24 1007.44 1007.66 1007.88 1008.09 1008.30 1008.50 1008.69 1008.89 1009.10 1009.33 1009.60 1009.92 1010.28 1010.69 1011.15
1011.33 1011.21 1011.02 1010.75 1010.42 1010.02 1009.59 1009.15 1008.71 1008.29 1007.92 1007.58 1007.29 1007.04 1006.83 1006.64 1006.47 1006.32 1006.19 1006.08 1006.00 1005.95 1005.94 1005.97 1006.04 1006.16 1006.32 1006.50 1006.72 1006.95 1007.19 1007.43 1007.67 1007.91 1008.15 1008.38 1008.63 1008.89 1009.17 1009.50 1009.86 1010.26 1010.71
1011.16 1011.03 1010.82 1010.52 1010.16 1009.73 1009.27 1008.79 1008.32 1007.88 1007.47 1007.12 1006.81 1006.54 1006.31 1006.11 1005.93 1005.76 1005.62 1005.50 1005.40 1005.33 1005.29 1005.29 1005.34 1005.43 1005.57 1005.75 1005.97 1006.22 1006.48 1006.76 1007.05 1007.34 1007.62 1007.90 1008.17 1008.45 1008.75 1009.06 1009.40 1009.78 1010.20
1010.98 1010.82 1010.57 1010.24 1009.83 1009.37 1008.88 1008.38 1007.89 1007.43 1007.02 1006.66 1006.35 1006.09 1005.86 1005.66 1005.48 1005.31 1005.16 1005.02 1004.89 1004.79 1004.71 1004.67 1004.68 1004.74 1004.84 1005.01 1005.22 1005.48 1005.77 1006.09 1006.42 1006.76 1007.09 1007.41 1007.72 1008.01 1008.30 1008.60 1008.91 1009.26 1009.63
1010.76 1010.54 1010.24 1009.86 1009.41 1008.92 1008.41 1007.89 1007.40 1006.95 1006.56 1006.21 1005.93 1005.68 1005.48 1005.29 1005.13 1004.97 1004.81 1004.65 1004.49 1004.35 1004.23 1004.14 1004.10 1004.11 1004.17 1004.31 1004.51 1004.77 1005.08 1005.43 1005.81 1006.19 1006.56 1006.92 1007.25 1007.56 1007.84 1008.12 1008.39 1008.69 1009.03
1010.46 1010.18 1009.83 1009.40 1008.91 1008.40 1007.87 1007.35 1006.87 1006.44 1006.07 1005.76 1005.51 1005.31 1005.14 1004.99 1004.85 1004.70 1004.55 1004.38 1004.20 1004.03 1003.86 1003.72 1003.62 1003.58 1003.60 1003.70 1003.88 1004.13 1004.45 1004.83 1005.23 1005.64 1006.05 1006.44 1006.78 1007.10 1007.37 1007.62 1007.87 1008.13 1008.42
1010.09 1009.76 1009.35 1008.88 1008.36 1007.83 1007.29 1006.79 1006.33 1005.93 1005.59 1005.32 1005.11 1004.95 1004.83 1004.71 1004.60 1004.48 1004.34 1004.17 1003.98 1003.78 1003.59 1003.40 1003.26 1003.17 1003.15 1003.22 1003.37 1003.61 1003.93 1004.31 1004.73 1005.16 1005.59 1005.99 1006.35 1006.66 1006.92 1007.15 1007.37 1007.59 1007.85
1009.67 1009.29 1008.85 1008.35 1007.82 1007.27 1006.75 1006.25 1005.81 1005.44 1005.13 1004.89 1004.72 1004.60 1004.51 1004.43 1004.35 1004.26 1004.13 1003.98 1003.79 1003.58 1003.37 1003.17 1002.99 1002.88 1002.83 1002.87 1003.00 1003.23 1003.54 1003.91 1004.33 1004.77 1005.21 1005.61 1005.96 1006.27 1006.53 1006.74 1006.94 1007.14 1007.37
1009.22 1008.83 1008.37 1007.86 1007.33 1006.79 1006.27 1005.79 1005.36 1005.00 1004.71 1004.50 1004.34 1004.24 1004.17 1004.11 1004.05 1003.98 1003.88 1003.74 1003.57 1003.37 1003.16 1002.96 1002.79 1002.67 1002.61 1002.65 1002.77 1002.98 1003.28 1003.65 1004.06 1004.49 1004.91 1005.31 1005.66 1005.96 1006.20 1006.41 1006.60 1006.79 1007.00
1008.78 1008.40 1007.95 1007.46 1006.94 1006.42 1005.91 1005.44 1005.01 1004.65 1004.36 1004.14 1003.98 1003.87 1003.79 1003.74 1003.69 1003.62 1003.54 1003.42 1003.27 1003.11 1002.93 1002.75 1002.60 1002.50 1002.46 1002.50 1002.63 1002.84 1003.13 1003.48 1003.88 1004.29 1004.70 1005.08 1005.41 1005.70 1005.95 1006.15 1006.34 1006.54 1006.76
1008.36 1008.02 1007.60 1007.14 1006.65 1006.15 1005.66 1005.19 1004.76 1004.38 1004.07 1003.82 1003.63 1003.49 1003.39 1003.32 1003.25 1003.19 1003.11 1003.02 1002.90 1002.77 1002.64 1002.51 1002.40 1002.34 1002.33 1002.39 1002.53 1002.74 1003.03 1003.36 1003.73 1004.12 1004.51 1004.87 1005.19 1005.47 1005.72 1005.94 1006.14 1006.35 1006.59
1007.95 1007.66 1007.30 1006.89 1006.44 1005.97 1005.49 1005.02 1004.58 1004.18 1003.84 1003.55 1003.31 1003.12 1002.98 1002.88 1002.79 1002.71 1002.64 1002.56 1002.47 1002.38 1002.29 1002.21 1002.16 1002.14 1002.17 1002.26 1002.42 1002.63 1002.91 1003.22 1003.57 1003.93 1004.28 1004.62 1004.93 1005.21 1005.46 1005.69 1005.92 1006.16 1006.43
1007.53 1007.30 1007.01 1006.65 1006.25 1005.81 1005.35 1004.89 1004.45 1004.03 1003.65 1003.31 1003.03 1002.80 1002.61 1002.46 1002.34 1002.25 1002.17 1002.10 1002.03 1001.98 1001.93 1001.89 1001.88 1001.91 1001.97 1002.08 1002.24 1002.45 1002.71 1003.00 1003.31 1003.63 1003.96 1004.27 1004.57 1004.85 1005.11 1005.37 1005.63 1005.91 1006.22
1007.07 1006.90 1006.67 1006.38 1006.02 1005.62 1005.20 1004.75 1004.31 1003.88 1003.48 1003.12 1002.80 1002.53 1002.31 1002.12 1001.98 1001.86 1001.77 1001.70 1001.65 1001.61 1001.58 1001.58 1001.59 1001.64 1001.71 1001.83 1001.98 1002.17 1002.40 1002.65 1002.93 1003.21 1003.50 1003.79 1004.07 1004.35 1004.63 1004.91 1005.21 1005.53 1005.89
1006.55 1006.44 1006.27 1006.02 1005.72 1005.37 1004.98 1004.56 1004.14 1003.73 1003.33 1002.97 1002.64 1002.35 1002.11 1001.90 1001.74 1001.61 1001.51 1001.43 1001.37 1001.33 1001.31 1001.30 1001.32 1001.36 1001.42 1001.52 1001.65 1001.80 1001.98 1002.19 1002.41 1002.66 1002.91 1003.17 1003.44 1003.72 1004.02 1004.33 1004.66 1005.02 1005.42
1006.00 1005.93 1005.80 1005.60 1005.34 1005.03 1004.68 1004.31 1003.93 1003.55 1003.19 1002.85 1002.54 1002.26 1002.02 1001.82 1001.65 1001.52 1001.40 1001.31 1001.24 1001.19 1001.14 1001.12 1001.11 1001.11 1001.14 1001.19 1001.27 1001.37 1001.50 1001.65 1001.83 1002.02 1002.24 1002.48 1002.74 1003.02 1003.33 1003.66 1004.02 1004.42 1004.85
1005.47 1005.42 1005.30 1005.13 1004.91 1004.64 1004.34 1004.02 1003.70 1003.37 1003.06 1002.77 1002.50 1002.27 1002.06 1001.88 1001.72 1001.59 1001.47 1001.36 1001.27 1001.18 1001.10 1001.04 1000.98 1000.94 1000.91 1000.90 1000.92 1000.96 1001.03 1001.12 1001.24 1001.40 1001.58 1001.80 1002.05 1002.33 1002.64 1002.99 1003.38 1003.80 1004.26
1005.02 1004.96 1004.85 1004.69 1004.49 1004.26 1004.01 1003.74 1003.47 1003.21 1002.97 1002.74 1002.54 1002.36 1002.19 1002.05 1001.91 1001.79 1001.67 1001.55 1001.43 1001.30 1001.18 1001.06 1000.95 1000.85 1000.76 1000.69 1000.64 1000.62 1000.63 1000.67 1000.75 1000.87 1001.03 1001.22 1001.46 1001.74 1002.06 1002.42 1002.82 1003.25 1003.71
Thickness
5658 5653 5647 5643 5638 5633 5628 5625 5621 5617 5614 5611 5609 5606 5604 5603 5601 5600 5599 5599 5599 5600 5601 5603 5606 5608 5610 5614 5617 5621 5626 5631 5637 5645 5652 5659 5664 5669 5675 5680 5685 5689 5692
5652 5646 5641 5636 5631 5626 5622 5618 5614 5610 5606 5603 5600 5598 5596 5594 5593 5591 5590 5590 5590 5590 5591 5592 5595 5598 5600 5604 5608 5612 5617 5622 5628 5635 5641 5648 5653 5659 5664 5669 5674 5678 5681
5646 5640 5635 5630 5625 5620 5616 5611 5607 5603 5599 5595 5592 5589 5587 5585 5584 5582 5581 5580 5580 5581 5581 5582 5585 5586 5590 5593 5597 5602 5607 5613 5619 5625 5631 5638 5644 5649 5653 5659 5663 5667 5671
5640 5635 5629 5624 5619 5614 5609 5605 5600 5596 5592 5588 5585 5582 5580 5578 5575 5573 5572 5571 5570 5570 5571 5572 5574 5576 5580 5583 5587 5593 5598 5602 5608 5615 5621 5627 5634 5639 5644 5649 5652 5657 5661
5635 5629 5624 5619 5613 5608 5603 5598 5594 5590 5586 5582 5578 5575 5573 5570 5568 5566 5563 5562 5561 5560 5561 5562 5564 5566 5569 5573 5578 5583 5587 5592 5598 5605 5611 5617 5624 5630 5636 5641 5644 5647 5650
5630 5624 5619 5613 5608 5603 5597 5593 5588 5584 5579 5575 5571 5568 5565 5563 5562 5558 5555 5553 5551 5550 5550 5551 5553 5556 5560 5563 5568 5573 5578 5584 5590 5596 5602 5609 5616 5623 5628 5633 5637 5640 5643
5625 5620 5614 5608 5602 5597 5592 5587 5582 5577 5573 5568 5565 5561 5558 5556 5552 5549 5546 5544 5541 5540 5539 5540 5542 5547 5549 5553 5557 5562 5568 5574 5582 5589 5595 5602 5608 5616 5621 5626 5631 5635 5639
5620 5614 5609 5603 5597 5591 5586 5581 5576 5571 5566 5562 5559 5555 5552 5550 5546 5542 5538 5535 5533 5532 5531 5531 5532 5535 5538 5541 5546 5551 5557 5564 5572 5580 5589 5595 5601 5608 5615 5621 5625 5627 5629
5615 5610 5604 5598 5592 5586 5581 5576 5570 5565 5561 5556 5552 5549 5546 5543 5539 5535 5530 5528 5525 5524 5523 5523 5523 5525 5528 5530 5534 5541 5547 5553 5560 5568 5576 5584 5591 5598 5605 5610 5614 5618 5621
5612 5606 5599 5593 5586 5581 5575 5570 5565 5559 5555 5551 5547 5543 5539 5536 5533 5528 5524 5521 5518 5517 5516 5515 5516 5517 5518 5520 5525 5531 5537 5544 5550 5558 5564 5572 5580 5587 5596 5603 5608 5612 5615
5608 5601 5595 5588 5582 5576 5571 5565 5560 5555 5550 5545 5542 5538 5534 5530 5527 5522 5518 5514 5513 5511 5509 5508 5509 5509 5510 5512 5516 5523 5529 5534 5540 5548 5555 5562 5570 5578 5586 5594 5600 5607 5612
5603 5597 5590 5584 5578 5574 5567 5561 5556 5550 5545 5542 5537 5534 5530 5526 5521 5518 5513 5510 5507 5504 5503 5503 5502 5502 5503 5505 5509 5515 5519 5524 5532 5540 5547 5554 5562 5571 5578 5585 5592 5599 5606
5598 5592 5586 5580 5574 5569 5563 5558 5553 5548 5542 5538 5533 5530 5527 5523 5518 5513 5510 5505 5502 5499 5498 5497 5497 5497 5498 5501 5505 5509 5513 5519 5527 5534 5542 5550 5557 5565 5571 5577 5583 5590 5595
5594 5588 5582 5576 5572 5567 5561 5556 5551 5546 5541 5537 5532 5528 5524 5520 5516 5511 5506 5502 5498 5495 5494 5494 5494 5494 5496 5498 5502 5505 5510 5517 5524 5531 5538 5544 5550 5557 5564 5571 5577 5583 5588
5590 5584 5579 5573 5569 5565 5560 5555 5550 5546 5539 5534 5531 5526 5521 5518 5514 5507 5501 5499 5495 5493 5492 5492 5493 5494 5496 5498 5500 5504 5508 5513 5519 5526 5533 5539 5545 5552 5559 5565 5573 5578 5584
5587 5581 5576 5571 5567 5562 5559 5556 5553 5546 5541 5534 5528 5523 5520 5515 5510 5506 5502 5498 5494 5492 5492 5494 5494 5495 5497 5499 5501 5504 5508 5513 5519 5524 5530 5536 5542 5548 5554 5560 5568 5574 5579
5583 5578 5573 5568 5564 5561 5557 5553 5551 5550 5544 5538 5532 5527 5521 5516 5511 5507 5503 5500 5497 5494 5495 5496 5497 5498 5499 5501 5502 5505 5509 5513 5517 5522 5528 5533 5539 5544 5551 5557 5563 5569 5574
5581 5576 5571 5566 5562 5559 5555 5552 5548 5545 5543 5541 5536 5530 5525 5519 5514 5509 5505 5502 5502 5499 5500 5500 5501 5501 5501 5502 5504 5506 5510 5513 5517 5522 5527 5532 5537 5542 5548 5554 5560 5566 5570
5578 5573 5569 5565 5561 5558 5555 5551 5549 5545 5542 5539 5537 5533 5527 5522 5517 5512 5508 5506 5506 5505 5504 5503 5504 5504 5505 5506 5507 5509 5512 5515 5518 5522 5526 5530 5535 5540 5546 5551 5557 5560 5566
5575 5572 5568 5564 5561 5558 5555 5552 5549 5546 5543 5540 5538 5534 5529 5524 5521 5518 5513 5510 5509 5508 5507 5507 5508 5508 5509 5510 5511 5512 5514 5517 5520 5523 5526 5530 5534 5539 5544 5549 5554 5559 5563
5573 5569 5566 5563 5559 5556 5554 5552 5549 5547 5544 5542 5539 5536 5531 5527 5525 5523 5520 5516 5514 5513 5512 5512 5512 5512 5513 5514 5515 5516 5518 5520 5522 5525 5527 5530 5534 5538 5542 5547 5552 5557 5561
5568 5565 5562 5560 5558 5556 5554 5552 5550 5547 5545 5543 5541 5538 5533 5530 5528 5526 5524 5521 5519 5518 5516 5516 5516 5516 5517 5518 5519 5521 5522 5524 5526 5527 5530 5532 5535 5538 5541 5545 5549 5554 5557
5565 5562 5561 5559 5557 5555 5554 5553 5550 5548 5546 5543 5541 5539 5537 5533 5531 5529 5527 5526 5523 5521 5520 5519 5519 5520 5521 5521 5523 5525 5527 5529 5530 5532 5533 5534 5537 5539 5542 5545 5548 5552 5555
5561 5559 5558 5556 5555 5554 5553 5552 5550 5549 5546 5544 5543 5540 5538 5535 5533 5531 5530 5528 5527 5525 5524 5523 5523 5523 5524 5525 5526 5527 5529 5531 5532 5533 5535 5536 5538 5540 5542 5545 5548 5550 5553
5556 5555 5554 5553 5552 5551 5551 5551 5550 5549 5547 5545 5543 5541 5539 5537 5535 5533 5532 5531 5529 5527 5526 5526 5525 5525 5526 5528 5529 5530 5531 5532 5533 5535 5536 5537 5538 5540 5542 5545 5547 5549 5552
5552 5551 5550 5549 5548 5548 5548 5549 5549 5548 5547 5546 5544 5542 5540 5538 5537 5536 5534 5533 5532 5531 5529 5529 5528 5528 5528 5529 5530 5531 5531 5532 5533 5535 5537 5538 5540 5542 5543 5545 5547 5549 5551